SCP
-0 -0 -0 -0 -0 -0 0 0 0 0 0 0 0 0 0 0 0 0 0 0 0 0 -0 -0 -0 -0 -0 -0 0 -0 -0 -0 -0 -0 -0 -0 -0 -0 -0 -0 -0 0 0
0 -0 -0 -0 -0 -0 -0 0 0 0 0 0 0 0 0 0 0 0 0 1 0 0 0 -0 -0 -0 -0 -0 -0 0 0 0 0 0 -0 -0 -0 -0 -0 -0 -0 0 -0
0 0 -0 -0 0 0 0 0 -0 0 0 0 0 0 0 0 0 0 0 1 0 0 0 -0 0 0 -0 -0 -0 0 0 0 0 -0 -0 -0 -0 -0 -0 -0 -0 -0 -0
0 0 0 0 0 0 0 0 0 0 0 0 0 0 0 0 0 0 0 0 1 1 0 0 0 0 0 0 -0 0 0 0 0 0 -0 -0 -0 -0 -0 -0 -0 -0 0
0 0 0 0 0 0 0 0 0 0 0 0 0 0 0 0 0 0 0 0 1 1 1 0 0 0 0 0 0 0 0 0 0 0 0 -0 -0 -0 -0 -0 -0 -0 -0
0 0 0 0 0 0 0 0 0 0 0 0 0 0 0 0 0 0 1 1 1 1 1 1 2 1 0 0 0 0 0 0 0 0 0 0 0 0 0 0 0 0 -0
0 0 0 0 0 0 0 0 0 0 0 0 0 0 0 0 0 0 1 1 0 0 0 1 1 1 1 0 0 0 0 0 0 0 0 0 0 0 0 0 0 0 0
0 0 0 0 0 0 0 0 0 0 0 0 0 0 0 0 0 0 1 1 0 0 0 0 0 0 0 0 0 0 0 0 0 0 1 0 0 0 0 0 0 0 0
0 0 0 0 0 0 0 0 0 0 0 0 0 0 0 0 0 0 0 1 1 0 1 0 0 0 0 0 0 0 0 0 0 0 0 1 1 0 0 0 0 0 0
0 0 0 0 0 0 0 0 0 0 0 0 0 0 0 0 0 0 0 0 1 0 0 0 0 0 0 0 0 0 0 0 0 0 0 0 0 0 0 0 0 0 0
0 0 0 0 0 0 0 0 0 0 0 0 0 0 0 0 0 0 0 0 0 0 0 0 0 0 0 0 0 0 0 0 0 0 0 0 0 0 0 0 0 0 0
0 0 0 0 0 0 0 0 0 0 0 0 0 0 0 0 0 0 0 0 0 0 0 0 0 0 0 0 0 0 0 0 0 0 0 0 0 0 0 0 0 0 0
0 0 0 0 0 0 0 0 0 0 0 0 0 0 0 0 0 0 0 0 0 0 0 0 0 0 0 0 0 0 0 0 0 0 0 0 0 0 0 0 0 0 0
0 0 0 0 0 0 0 0 0 0 0 0 0 0 0 0 0 0 0 0 0 0 0 0 0 0 0 0 0 0 0 0 0 0 0 0 0 0 0 0 0 0 0
0 0 0 0 0 0 0 0 0 0 0 0 0 0 0 0 0 0 0 0 0 0 0 0 0 0 0 0 0 0 0 0 0 0 0 0 0 0 0 0 0 0 0
0 0 0 0 0 0 0 0 0 0 0 0 0 0 0 0 0 0 0 0 0 0 0 0 0 0 0 0 0 0 0 0 0 0 0 0 0 0 0 0 0 0 0
0 0 0 0 0 0 0 0 0 0 0 0 0 0 0 0 0 0 0 0 0 0 0 0 0 0 0 0 0 0 0 0 0 0 0 0 0 0 0 0 0 0 0
0 0 0 0 0 0 0 0 0 0 0 0 0 0 0 0 0 0 0 0 0 0 0 0 0 0 0 0 0 0 0 0 0 0 0 0 0 0 0 0 0 0 0
0 0 0 0 0 0 0 0 0 0 0 0 0 0 0 0 0 0 0 0 0 0 0 0 0 0 0 0 0 0 0 0 0 0 0 0 0 0 0 0 0 0 0
0 0 0 0 0 0 0 0 0 0 0 0 0 0 0 0 0 0 0 0 0 0 0 0 0 0 0 0 0 0 0 0 0 0 0 0 0 0 0 0 0 0 0
0 0 0 0 0 0 0 0 0 0 0 0 0 0 0 0 0 0 0 0 0 0 0 0 0 0 0 0 0 0 0 0 0 0 0 0 0 0 0 0 0 0 0
0 0 0 0 0 0 0 0 0 0 0 0 0 0 0 0 0 0 0 0 0 0 0 0 0 0 0 0 0 0 0 0 0 0 0 0 0 0 0 0 0 0 0
0 0 0 0 0 0 0 0 0 0 0 0 0 0 0 0 0 0 0 0 0 0 0 0 0 0 0 0 0 0 0 0 0 0 0 0 0 0 0 0 0 0 0
0 0 0 0 0 0 0 0 0 0 0 0 0 0 0 0 0 0 0 0 0 0 0 0 0 0 0 0 0 0 0 0 0 0 0 0 0 0 0 0 -0 -0 -0
0 0 0 0 0 0 0 0 0 0 0 0 0 0 0 0 0 0 0 0 0 0 0 0 0 0 0 0 0 0 0 0 0 0 0 0 0 0 0 0 -0 -0 -0
0 0 0 0 0 0 0 0 0 0 0 0 0 0 0 -0 0 0 0 -0 0 0 0 0 0 0 0 0 0 0 0 0 0 0 0 0 0 0 0 -0 0 0 0
Wind_Speed_500mb
33 31 31 32 33 33 31 30 29 27 28 28 29 28 27 28 29 31 28 28 28 26 24 24 22 19 19 19 18 18 17 17 16 14 13 13 14 14 15 16 16 15 13
36 34 32 31 32 31 31 30 30 32 32 34 35 35 34 33 37 39 35 36 37 30 29 28 24 22 20 22 21 22 23 23 21 20 19 18 16 15 15 17 18 18 16
37 36 34 34 31 28 29 30 31 35 38 38 38 38 38 41 42 45 39 40 44 39 38 34 30 27 24 24 27 25 26 29 28 25 25 24 23 22 21 19 19 18 16
38 38 39 34 32 30 28 28 30 30 36 42 42 41 42 45 46 49 47 51 59 56 45 38 34 30 29 27 31 33 32 34 35 32 31 30 30 29 28 27 25 23 21
39 42 43 42 42 42 36 36 35 37 37 45 47 49 45 56 56 55 54 52 47 57 50 42 38 34 32 34 36 39 39 39 40 38 36 34 35 32 34 32 31 30 30
45 47 48 50 49 47 47 47 47 43 38 44 47 54 58 57 61 60 56 54 50 58 50 51 48 39 34 34 34 36 38 41 43 43 43 41 41 41 39 38 37 37 37
47 47 48 50 55 59 59 53 53 50 47 44 49 54 55 61 66 64 65 57 59 58 58 58 54 45 37 35 34 38 39 42 44 46 48 49 48 46 46 44 44 43 43
52 53 55 56 59 67 68 69 67 56 50 47 48 46 47 58 73 74 73 69 65 60 61 62 59 52 46 43 38 40 39 37 38 43 46 48 50 50 47 48 46 43 47
55 53 53 54 56 58 61 68 76 77 55 45 31 33 22 30 52 64 75 78 74 67 66 65 64 60 54 50 43 41 42 40 38 38 42 45 49 49 51 49 50 45 49
52 51 53 53 46 45 48 54 63 67 66 73 58 60 72 76 45 43 57 79 80 74 72 71 70 66 62 58 50 42 40 39 38 39 40 43 50 51 54 50 52 46 54
36 40 40 40 40 34 32 38 44 48 61 71 65 79 74 71 54 61 53 55 59 82 81 78 77 74 69 66 57 49 44 39 37 39 47 53 44 49 54 56 55 56 53
26 26 30 33 32 35 36 35 41 44 48 57 65 62 69 61 62 68 84 83 79 63 51 51 71 80 79 76 67 56 51 46 44 42 45 48 53 57 62 63 62 63 58
15 17 21 22 25 25 27 29 28 31 35 43 50 55 55 54 53 60 81 48 49 67 72 87 80 66 77 83 75 70 62 58 53 50 47 47 55 60 60 61 59 60 55
15 18 21 23 25 26 27 26 27 30 37 43 51 51 54 56 56 57 57 69 66 71 80 94 96 100 86 66 71 75 73 67 61 59 56 51 50 56 58 58 50 49 48
15 17 19 21 23 26 29 31 29 30 35 39 41 48 55 60 57 61 59 63 67 68 76 83 89 101 98 91 87 76 77 74 73 72 67 59 56 58 59 53 49 51 52
10 12 16 19 21 23 26 29 33 35 34 35 39 45 48 50 52 47 52 55 63 72 84 76 84 86 82 92 104 91 96 92 93 84 80 70 65 62 59 55 51 44 40
14 16 19 23 26 29 31 32 34 36 39 41 43 45 43 43 48 53 52 56 57 64 73 60 63 83 89 93 100 93 96 103 102 100 99 91 76 66 59 50 43 44 41
13 19 24 28 30 32 34 36 38 39 39 39 39 38 40 43 45 47 49 52 56 59 59 66 77 63 81 75 84 82 95 94 100 117 108 79 75 68 61 55 47 39 37
17 22 25 28 31 35 37 37 37 38 39 36 34 33 30 29 26 29 40 48 52 55 60 58 58 70 66 59 83 81 85 92 99 103 89 72 75 70 65 56 48 42 36
19 21 23 24 27 28 29 33 38 38 36 30 32 35 36 33 33 31 34 39 46 54 54 59 55 58 61 65 72 76 81 80 90 89 75 78 75 72 56 56 53 45 36
22 22 24 26 24 23 26 31 34 32 33 33 33 34 41 44 43 40 35 37 45 48 45 48 51 56 61 63 72 77 80 85 84 86 86 86 70 58 62 61 53 42 42
17 19 22 20 20 19 24 26 23 26 27 30 33 32 31 36 41 49 40 27 35 49 45 38 45 54 55 57 68 80 84 84 70 71 79 61 57 63 57 57 63 57 42
12 17 21 18 14 19 27 23 18 22 19 26 29 31 35 31 27 20 17 30 35 39 35 32 39 49 56 57 64 73 69 71 59 49 52 60 66 64 71 67 52 47 35
16 20 11 9 11 21 23 23 18 22 15 23 25 36 33 24 15 23 21 19 12 20 31 29 12 24 35 46 62 71 70 66 57 61 74 61 61 57 55 55 43 42 35
17 17 8 9 13 18 20 23 19 19 16 22 22 18 21 8 17 26 23 16 12 12 20 16 17 29 15 34 58 68 46 55 33 31 41 34 29 25 31 27 24 28 34
15 14 6 7 17 17 18 21 18 22 18 18 3 8 11 15 18 18 20 21 24 28 26 27 28 26 24 23 32 33 41 50 46 35 26 25 21 21 21 35 37 35 31
Wind_Direction_500mb
199 198 199 202 204 209 213 223 235 235 232 235 236 235 239 244 224 216 226 223 215 203 206 204 200 201 202 207 207 210 210 214 205 205 210 203 197 195 195 197 194 194 196
208 207 208 210 212 216 221 231 240 249 244 236 234 238 240 238 236 239 241 232 226 217 221 219 212 217 217 222 218 223 222 224 221 218 219 227 223 219 211 209 207 207 203
218 218 218 218 219 224 233 238 244 246 250 245 238 240 245 246 246 248 242 244 227 226 226 226 224 229 231 234 232 231 231 230 228 226 228 226 228 228 230 222 217 216 217
225 225 223 225 225 233 243 246 245 253 253 251 247 245 253 250 249 245 251 248 245 243 234 232 229 233 238 240 247 244 239 234 234 232 231 231 232 230 230 230 227 223 222
235 236 235 238 239 236 242 245 249 256 261 250 249 252 254 255 250 249 250 244 247 228 233 234 236 232 238 240 241 244 242 242 239 237 239 239 237 236 235 234 237 233 231
240 244 244 242 244 247 249 248 248 248 259 254 258 260 258 250 246 249 246 238 237 230 235 233 236 235 242 247 248 242 239 241 243 242 243 243 237 235 235 238 237 236 231
235 240 241 244 248 251 253 256 253 249 250 249 252 261 258 250 245 249 248 241 236 227 226 237 238 239 248 253 255 249 248 247 247 244 243 240 235 234 238 236 241 238 228
241 246 255 256 257 257 258 254 254 253 253 255 256 259 268 265 251 244 245 245 241 238 234 234 240 244 249 254 257 256 253 251 254 248 237 236 233 231 232 236 235 240 240
251 254 257 258 258 263 263 271 268 261 261 265 281 275 294 278 267 252 245 245 245 237 237 239 243 245 249 254 259 258 255 254 259 249 234 231 232 231 226 229 238 239 246
261 264 267 271 275 272 274 264 262 260 254 253 280 282 274 265 287 275 261 249 251 246 244 243 244 251 251 252 258 253 250 254 258 241 233 235 230 236 236 232 238 241 241
272 274 271 268 260 255 258 269 276 264 253 255 251 257 267 259 270 266 258 265 253 252 252 257 256 254 254 256 257 252 246 249 253 246 233 233 237 235 233 238 240 244 245
263 267 275 281 283 288 286 271 266 270 270 259 261 261 262 260 264 258 257 249 270 275 272 273 268 263 259 258 260 252 246 248 247 251 246 240 231 235 235 241 244 244 238
273 286 292 297 300 295 290 289 285 272 267 267 266 258 258 265 267 267 253 255 265 268 266 269 263 267 260 256 258 254 244 245 244 248 253 251 239 228 234 242 243 241 237
289 293 295 299 303 302 299 294 281 281 272 266 265 260 260 264 269 270 268 260 266 268 266 262 256 251 261 259 257 257 250 245 247 249 250 252 243 234 228 236 234 221 221
284 294 298 300 300 300 300 301 297 286 278 274 275 269 267 271 270 267 265 264 261 258 257 262 256 255 252 252 259 259 265 263 256 250 249 245 237 230 227 227 217 217 220
317 320 323 325 323 318 310 304 300 298 291 283 276 273 274 275 275 269 266 253 250 256 262 258 259 259 261 262 255 257 261 260 256 250 243 235 227 220 222 222 222 225 224
334 333 331 331 330 327 323 317 310 303 297 293 289 288 286 279 273 274 270 267 259 255 261 265 264 259 260 255 260 256 258 254 249 242 240 230 220 218 222 222 221 221 222
321 324 324 322 320 320 321 320 318 314 310 307 304 297 292 290 290 286 279 273 268 261 267 270 268 272 258 257 258 259 259 243 248 241 230 209 211 210 213 216 216 214 213
312 314 312 312 317 320 319 318 316 313 311 311 313 315 317 311 310 314 304 293 284 273 264 264 270 268 264 270 257 250 240 243 240 233 221 205 207 208 210 206 205 203 194
296 307 310 314 316 319 325 329 330 324 318 317 319 319 313 306 299 302 308 310 303 294 285 271 262 268 267 261 250 241 236 232 226 215 210 201 203 201 195 196 187 181 195
289 294 302 300 306 318 329 339 343 352 353 350 340 322 307 297 291 291 303 314 321 303 288 278 262 267 266 260 245 236 228 218 211 209 196 192 188 188 186 187 191 191 203
280 292 291 293 293 303 319 332 350 1 356 353 345 339 329 333 323 278 284 300 323 329 302 277 266 267 268 268 244 231 218 205 186 199 198 199 189 183 197 191 194 199 203
284 300 285 269 298 291 294 307 322 342 356 348 340 343 334 337 340 333 285 300 306 319 318 300 275 266 259 254 236 211 198 190 179 183 183 184 200 195 200 203 208 205 223
287 307 289 273 277 278 277 283 304 336 349 335 334 331 339 2 356 346 315 315 321 11 37 25 281 256 244 218 201 179 158 158 141 149 174 173 192 213 229 233 214 213 228
282 289 271 262 259 275 270 267 293 297 321 349 335 33 11 342 53 42 41 72 59 35 38 36 28 81 139 169 158 154 143 141 153 178 167 142 194 199 211 222 237 241 245
264 256 251 294 279 278 267 256 281 296 307 326 223 340 346 17 37 355 346 346 84 50 70 74 75 111 130 146 120 132 137 137 144 148 169 155 174 185 231 246 242 236 233
Wind_Speed_850mb
33 31 31 32 33 33 31 30 29 27 28 28 29 28 27 28 29 31 28 28 28 26 24 24 22 19 19 19 18 18 17 17 16 14 13 13 14 14 15 16 16 15 13
36 34 32 31 32 31 31 30 30 32 32 34 35 35 34 33 37 39 35 36 37 30 29 28 24 22 20 22 21 22 23 23 21 20 19 18 16 15 15 17 18 18 16
37 36 34 34 31 28 29 30 31 35 38 38 38 38 38 41 42 45 39 40 44 39 38 34 30 27 24 24 27 25 26 29 28 25 25 24 23 22 21 19 19 18 16
38 38 39 34 32 30 28 28 30 30 36 42 42 41 42 45 46 49 47 51 59 56 45 38 34 30 29 27 31 33 32 34 35 32 31 30 30 29 28 27 25 23 21
39 42 43 42 42 42 36 36 35 37 37 45 47 49 45 56 56 55 54 52 47 57 50 42 38 34 32 34 36 39 39 39 40 38 36 34 35 32 34 32 31 30 30
45 47 48 50 49 47 47 47 47 43 38 44 47 54 58 57 61 60 56 54 50 58 50 51 48 39 34 34 34 36 38 41 43 43 43 41 41 41 39 38 37 37 37
47 47 48 50 55 59 59 53 53 50 47 44 49 54 55 61 66 64 65 57 59 58 58 58 54 45 37 35 34 38 39 42 44 46 48 49 48 46 46 44 44 43 43
52 53 55 56 59 67 68 69 67 56 50 47 48 46 47 58 73 74 73 69 65 60 61 62 59 52 46 43 38 40 39 37 38 43 46 48 50 50 47 48 46 43 47
55 53 53 54 56 58 61 68 76 77 55 45 31 33 22 30 52 64 75 78 74 67 66 65 64 60 54 50 43 41 42 40 38 38 42 45 49 49 51 49 50 45 49
52 51 53 53 46 45 48 54 63 67 66 73 58 60 72 76 45 43 57 79 80 74 72 71 70 66 62 58 50 42 40 39 38 39 40 43 50 51 54 50 52 46 54
36 40 40 40 40 34 32 38 44 48 61 71 65 79 74 71 54 61 53 55 59 82 81 78 77 74 69 66 57 49 44 39 37 39 47 53 44 49 54 56 55 56 53
26 26 30 33 32 35 36 35 41 44 48 57 65 62 69 61 62 68 84 83 79 63 51 51 71 80 79 76 67 56 51 46 44 42 45 48 53 57 62 63 62 63 58
15 17 21 22 25 25 27 29 28 31 35 43 50 55 55 54 53 60 81 48 49 67 72 87 80 66 77 83 75 70 62 58 53 50 47 47 55 60 60 61 59 60 55
15 18 21 23 25 26 27 26 27 30 37 43 51 51 54 56 56 57 57 69 66 71 80 94 96 100 86 66 71 75 73 67 61 59 56 51 50 56 58 58 50 49 48
15 17 19 21 23 26 29 31 29 30 35 39 41 48 55 60 57 61 59 63 67 68 76 83 89 101 98 91 87 76 77 74 73 72 67 59 56 58 59 53 49 51 52
10 12 16 19 21 23 26 29 33 35 34 35 39 45 48 50 52 47 52 55 63 72 84 76 84 86 82 92 104 91 96 92 93 84 80 70 65 62 59 55 51 44 40
14 16 19 23 26 29 31 32 34 36 39 41 43 45 43 43 48 53 52 56 57 64 73 60 63 83 89 93 100 93 96 103 102 100 99 91 76 66 59 50 43 44 41
13 19 24 28 30 32 34 36 38 39 39 39 39 38 40 43 45 47 49 52 56 59 59 66 77 63 81 75 84 82 95 94 100 117 108 79 75 68 61 55 47 39 37
17 22 25 28 31 35 37 37 37 38 39 36 34 33 30 29 26 29 40 48 52 55 60 58 58 70 66 59 83 81 85 92 99 103 89 72 75 70 65 56 48 42 36
19 21 23 24 27 28 29 33 38 38 36 30 32 35 36 33 33 31 34 39 46 54 54 59 55 58 61 65 72 76 81 80 90 89 75 78 75 72 56 56 53 45 36
22 22 24 26 24 23 26 31 34 32 33 33 33 34 41 44 43 40 35 37 45 48 45 48 51 56 61 63 72 77 80 85 84 86 86 86 70 58 62 61 53 42 42
17 19 22 20 20 19 24 26 23 26 27 30 33 32 31 36 41 49 40 27 35 49 45 38 45 54 55 57 68 80 84 84 70 71 79 61 57 63 57 57 63 57 42
12 17 21 18 14 19 27 23 18 22 19 26 29 31 35 31 27 20 17 30 35 39 35 32 39 49 56 57 64 73 69 71 59 49 52 60 66 64 71 67 52 47 35
16 20 11 9 11 21 23 23 18 22 15 23 25 36 33 24 15 23 21 19 12 20 31 29 12 24 35 46 62 71 70 66 57 61 74 61 61 57 55 55 43 42 35
17 17 8 9 13 18 20 23 19 19 16 22 22 18 21 8 17 26 23 16 12 12 20 16 17 29 15 34 58 68 46 55 33 31 41 34 29 25 31 27 24 28 34
15 14 6 7 17 17 18 21 18 22 18 18 3 8 11 15 18 18 20 21 24 28 26 27 28 26 24 23 32 33 41 50 46 35 26 25 21 21 21 35 37 35 31
Wind_Direction_850mb
199 198 199 202 204 209 213 223 235 235 232 235 236 235 239 244 224 216 226 223 215 203 206 204 200 201 202 207 207 210 210 214 205 205 210 203 197 195 195 197 194 194 196
208 207 208 210 212 216 221 231 240 249 244 236 234 238 240 238 236 239 241 232 226 217 221 219 212 217 217 222 218 223 222 224 221 218 219 227 223 219 211 209 207 207 203
218 218 218 218 219 224 233 238 244 246 250 245 238 240 245 246 246 248 242 244 227 226 226 226 224 229 231 234 232 231 231 230 228 226 228 226 228 228 230 222 217 216 217
225 225 223 225 225 233 243 246 245 253 253 251 247 245 253 250 249 245 251 248 245 243 234 232 229 233 238 240 247 244 239 234 234 232 231 231 232 230 230 230 227 223 222
235 236 235 238 239 236 242 245 249 256 261 250 249 252 254 255 250 249 250 244 247 228 233 234 236 232 238 240 241 244 242 242 239 237 239 239 237 236 235 234 237 233 231
240 244 244 242 244 247 249 248 248 248 259 254 258 260 258 250 246 249 246 238 237 230 235 233 236 235 242 247 248 242 239 241 243 242 243 243 237 235 235 238 237 236 231
235 240 241 244 248 251 253 256 253 249 250 249 252 261 258 250 245 249 248 241 236 227 226 237 238 239 248 253 255 249 248 247 247 244 243 240 235 234 238 236 241 238 228
241 246 255 256 257 257 258 254 254 253 253 255 256 259 268 265 251 244 245 245 241 238 234 234 240 244 249 254 257 256 253 251 254 248 237 236 233 231 232 236 235 240 240
251 254 257 258 258 263 263 271 268 261 261 265 281 275 294 278 267 252 245 245 245 237 237 239 243 245 249 254 259 258 255 254 259 249 234 231 232 231 226 229 238 239 246
261 264 267 271 275 272 274 264 262 260 254 253 280 282 274 265 287 275 261 249 251 246 244 243 244 251 251 252 258 253 250 254 258 241 233 235 230 236 236 232 238 241 241
272 274 271 268 260 255 258 269 276 264 253 255 251 257 267 259 270 266 258 265 253 252 252 257 256 254 254 256 257 252 246 249 253 246 233 233 237 235 233 238 240 244 245
263 267 275 281 283 288 286 271 266 270 270 259 261 261 262 260 264 258 257 249 270 275 272 273 268 263 259 258 260 252 246 248 247 251 246 240 231 235 235 241 244 244 238
273 286 292 297 300 295 290 289 285 272 267 267 266 258 258 265 267 267 253 255 265 268 266 269 263 267 260 256 258 254 244 245 244 248 253 251 239 228 234 242 243 241 237
289 293 295 299 303 302 299 294 281 281 272 266 265 260 260 264 269 270 268 260 266 268 266 262 256 251 261 259 257 257 250 245 247 249 250 252 243 234 228 236 234 221 221
284 294 298 300 300 300 300 301 297 286 278 274 275 269 267 271 270 267 265 264 261 258 257 262 256 255 252 252 259 259 265 263 256 250 249 245 237 230 227 227 217 217 220
317 320 323 325 323 318 310 304 300 298 291 283 276 273 274 275 275 269 266 253 250 256 262 258 259 259 261 262 255 257 261 260 256 250 243 235 227 220 222 222 222 225 224
334 333 331 331 330 327 323 317 310 303 297 293 289 288 286 279 273 274 270 267 259 255 261 265 264 259 260 255 260 256 258 254 249 242 240 230 220 218 222 222 221 221 222
321 324 324 322 320 320 321 320 318 314 310 307 304 297 292 290 290 286 279 273 268 261 267 270 268 272 258 257 258 259 259 243 248 241 230 209 211 210 213 216 216 214 213
312 314 312 312 317 320 319 318 316 313 311 311 313 315 317 311 310 314 304 293 284 273 264 264 270 268 264 270 257 250 240 243 240 233 221 205 207 208 210 206 205 203 194
296 307 310 314 316 319 325 329 330 324 318 317 319 319 313 306 299 302 308 310 303 294 285 271 262 268 267 261 250 241 236 232 226 215 210 201 203 201 195 196 187 181 195
289 294 302 300 306 318 329 339 343 352 353 350 340 322 307 297 291 291 303 314 321 303 288 278 262 267 266 260 245 236 228 218 211 209 196 192 188 188 186 187 191 191 203
280 292 291 293 293 303 319 332 350 1 356 353 345 339 329 333 323 278 284 300 323 329 302 277 266 267 268 268 244 231 218 205 186 199 198 199 189 183 197 191 194 199 203
284 300 285 269 298 291 294 307 322 342 356 348 340 343 334 337 340 333 285 300 306 319 318 300 275 266 259 254 236 211 198 190 179 183 183 184 200 195 200 203 208 205 223
287 307 289 273 277 278 277 283 304 336 349 335 334 331 339 2 356 346 315 315 321 11 37 25 281 256 244 218 201 179 158 158 141 149 174 173 192 213 229 233 214 213 228
282 289 271 262 259 275 270 267 293 297 321 349 335 33 11 342 53 42 41 72 59 35 38 36 28 81 139 169 158 154 143 141 153 178 167 142 194 199 211 222 237 241 245
264 256 251 294 279 278 267 256 281 296 307 326 223 340 346 17 37 355 346 346 84 50 70 74 75 111 130 146 120 132 137 137 144 148 169 155 174 185 231 246 242 236 233